Weather reports worldwide

Advertisment
Bologna/Borgo Panigale, Italy (16140): temperature & dewpoint: 31.05.2020 18:00:00 - 06.06.2020 18:00:00 (CEST)Bologna/Borgo Panigale, Italy (16140): wind speed: 31.05.2020 18:00:00 - 06.06.2020 18:00:00 (CEST)Bologna/Borgo Panigale, Italy (16140): wind direction: 31.05.2020 18:00:00 - 06.06.2020 18:00:00 (CEST)Bologna/Borgo Panigale, Italy (16140): reduced air pressure: 31.05.2020 18:00:00 - 06.06.2020 18:00:00 (CEST)Bologna/Borgo Panigale, Italy (16140): visibility: 31.05.2020 18:00:00 - 06.06.2020 18:00:00 (CEST)Bologna/Borgo Panigale, Italy (16140): precipitation: 31.05.2020 18:00:00 - 06.06.2020 18:00:00 (CEST)
Date & Time tt [°C] td [°C] ff [km/h] ff [kn] dd ppp [hPa] vv [km] rr [mm]
06.06.2020 18:00:00 27,0 13,0 24 13 S - 10 -
06.06.2020 17:00:00 27,8 14,6 16 9 S 1005,2 10 0,0
06.06.2020 16:00:00 28,0 15,0 15 8 S - 10 -
06.06.2020 15:00:00 28,0 14,0 15 8 - - 10 -
06.06.2020 14:00:00 27,2 14,1 9 5 E 1005,9 10 -
06.06.2020 13:00:00 26,0 14,0 9 5 NE - 10 -
06.06.2020 12:00:00 25,0 14,0 8 4 E - 10 -
06.06.2020 11:00:00 24,7 14,1 4 2 - 1006,9 10 0,0
06.06.2020 10:00:00 23,0 14,0 4 2 - - 10 -
06.06.2020 09:00:00 22,0 14,0 5 3 S - 10 -
06.06.2020 08:00:00 19,9 13,7 13 7 SSW 1006,3 10 -
06.06.2020 07:00:00 18,0 13,0 15 8 SSW - 10 -
06.06.2020 06:00:00 17,0 13,0 9 5 S - 10 -
06.06.2020 05:00:00 15,8 13,0 5 3 WNW 1005,2 10 0,0
06.06.2020 04:00:00 18,0 13,0 15 8 SW - 10 -
06.06.2020 03:00:00 19,0 13,0 16 9 SSW - 10 -
06.06.2020 02:00:00 18,9 13,0 18 10 SSW 1004,4 30 -
06.06.2020 01:00:00 20,0 13,0 18 10 SSW - 10 -
06.06.2020 00:00:00 20,0 13,0 16 9 SSW - 10 -
05.06.2020 23:00:00 20,5 13,2 15 8 S 1002,9 10 0,0
05.06.2020 22:00:00 21,0 15,0 9 5 S - 10 -
05.06.2020 21:00:00 22,0 14,0 5 3 SSE - 10 -
05.06.2020 20:00:00 24,7 13,1 2 1 - 1000,8 10 -
05.06.2020 19:00:00 25,0 11,0 8 4 - - 10 -
05.06.2020 18:00:00 25,0 13,0 13 7 SSW - 10 -
05.06.2020 17:00:00 25,1 13,1 18 10 W 999,8 10 0,0
05.06.2020 16:00:00 25,0 15,0 5 3 NW - 10 -
05.06.2020 15:00:00 25,0 14,0 9 5 - - 10 -
05.06.2020 14:00:00 24,1 12,8 9 5 NW 998,7 10 -
05.06.2020 13:00:00 22,0 15,0 11 6 NW - 10 -
05.06.2020 12:00:00 21,0 15,0 13 7 W - 10 -
05.06.2020 11:00:00 20,4 15,8 13 7 WNW 998,2 10 0,0
05.06.2020 10:00:00 19,0 15,0 15 8 WNW - 10 -
05.06.2020 09:00:00 19,0 16,0 11 6 WNW - 10 -
05.06.2020 08:00:00 18,0 15,9 8 4 SSW 996,9 8 -
05.06.2020 07:00:00 16,0 15,0 4 2 WSW - 5 -
05.06.2020 06:00:00 14,0 14,0 5 3 ESE - 5 -
05.06.2020 05:00:00 15,3 14,7 8 4 W 995,5 10 0,0
05.06.2020 04:00:00 16,0 15,0 8 4 SSW - 10 -
05.06.2020 03:00:00 16,0 15,0 4 2 - - 10 -
05.06.2020 02:00:00 16,7 15,4 2 1 - 995,4 10 -
05.06.2020 01:00:00 - - - - - - - -
05.06.2020 00:00:00 17,0 16,0 11 6 SSE - 10 -
04.06.2020 23:00:00 16,6 15,5 8 4 S 996,1 8 0,0
04.06.2020 22:00:00 17,0 17,0 11 6 ESE - 5 -
04.06.2020 21:00:00 18,0 17,0 13 7 ENE - 8 -
04.06.2020 20:00:00 18,4 17,3 8 4 NNE 997,9 6 -
04.06.2020 19:00:00 20,0 16,0 8 4 SE - 10 -
04.06.2020 18:00:00 21,0 14,0 4 2 SSE - 10 -
04.06.2020 17:00:00 20,0 17,0 5 3 NNE - 10 -
04.06.2020 16:00:00 19,0 17,0 9 5 E - 10 -
04.06.2020 15:00:00 18,0 16,0 18 10 ESE - 10 -
04.06.2020 14:00:00 18,7 16,3 18 10 ESE 1001,5 10 -
04.06.2020 13:00:00 19,0 16,0 13 7 E - 10 -
04.06.2020 12:00:00 20,0 15,0 15 8 ESE - 10 -
04.06.2020 11:00:00 19,6 13,7 11 6 SSE 1002,6 10 0,0
04.06.2020 10:00:00 19,0 13,0 11 6 S - 10 -
04.06.2020 09:00:00 19,0 14,0 13 7 SE - 10 -
04.06.2020 08:00:00 18,7 14,0 11 6 S 1003,2 10 -
04.06.2020 07:00:00 20,0 13,0 16 9 S - 10 -
04.06.2020 06:00:00 19,0 12,0 13 7 S - 10 -
04.06.2020 05:00:00 18,5 11,0 16 9 SSW 1003,1 10 0,0
04.06.2020 04:00:00 18,0 11,0 11 6 S - 10 -
04.06.2020 03:00:00 19,0 11,0 15 8 SSW - 10 -
04.06.2020 02:00:00 19,0 10,8 16 9 SSW 1004,9 10 -
04.06.2020 01:00:00 19,0 9,0 5 3 SW - 10 -
04.06.2020 00:00:00 20,0 9,0 13 7 SSW - 10 -
03.06.2020 23:00:00 21,0 9,7 15 8 S 1005,6 10 0,0
03.06.2020 22:00:00 22,0 11,0 13 7 SSW - 10 -
03.06.2020 21:00:00 23,0 12,0 16 9 S - 10 -
03.06.2020 20:00:00 24,3 14,4 15 8 SW 1005,2 10 -
03.06.2020 19:00:00 26,0 15,0 11 6 SSW - 10 -
03.06.2020 18:00:00 24,0 15,0 13 7 SW - 10 -
03.06.2020 17:00:00 24,8 17,0 5 3 - 1005,6 10 0,0
03.06.2020 16:00:00 25,0 10,0 18 10 SW - 10 -
03.06.2020 15:00:00 27,0 14,0 8 4 - - 10 -
03.06.2020 14:00:00 27,2 13,5 8 4 NNW 1007,4 10 -
03.06.2020 13:00:00 26,0 12,0 8 4 NNW - 10 -
03.06.2020 12:00:00 25,0 12,0 5 3 - - 10 -
03.06.2020 11:00:00 24,3 12,8 8 4 - 1009,1 10 0,0
03.06.2020 10:00:00 23,0 12,0 13 7 W - 10 -
03.06.2020 09:00:00 21,0 12,0 13 7 WSW - 10 -
03.06.2020 08:00:00 18,8 11,5 13 7 SSW 1010,0 10 -
03.06.2020 07:00:00 15,0 11,0 8 4 SW - 10 -
03.06.2020 06:00:00 15,0 10,0 11 6 WSW - 10 -
03.06.2020 05:00:00 15,5 10,9 13 7 SSW 1009,9 10 0,0
03.06.2020 04:00:00 14,0 11,0 9 5 S - 10 -
03.06.2020 03:00:00 14,0 12,0 4 2 - - 10 -
03.06.2020 02:00:00 14,5 12,8 9 5 SE 1011,1 10 -
03.06.2020 01:00:00 16,0 13,0 2 1 - - 10 -
03.06.2020 00:00:00 18,0 12,0 8 4 - - 10 -
02.06.2020 23:00:00 18,8 12,1 13 7 WNW 1011,3 10 0,0
02.06.2020 22:00:00 20,0 13,0 16 9 NW - 10 -
02.06.2020 21:00:00 21,0 13,0 15 8 W - 10 -
02.06.2020 20:00:00 24,6 12,1 15 8 W 1010,1 10 -
02.06.2020 19:00:00 27,0 10,0 13 7 SSW - 10 -
02.06.2020 18:00:00 28,0 10,0 13 7 S - 10 -
02.06.2020 17:00:00 28,2 11,1 5 3 - 1010,5 10 0,0
02.06.2020 16:00:00 28,0 12,0 9 5 SW - 10 -
02.06.2020 15:00:00 27,0 12,0 8 4 W - 10 -
02.06.2020 14:00:00 27,4 11,0 11 6 NW 1012,6 10 -
02.06.2020 13:00:00 26,0 12,0 11 6 WNW - 10 -
02.06.2020 12:00:00 26,0 11,0 5 3 - - 10 -
02.06.2020 11:00:00 24,5 10,4 5 3 W 1014,3 10 0,0
02.06.2020 10:00:00 23,0 10,0 5 3 W - 10 -
02.06.2020 09:00:00 21,0 9,0 9 5 S - 10 -
02.06.2020 08:00:00 19,0 8,9 11 6 S 1014,9 10 -
02.06.2020 07:00:00 17,0 9,0 8 4 S - 10 -
02.06.2020 06:00:00 15,0 8,0 5 3 W - 10 -
02.06.2020 05:00:00 16,9 8,1 18 10 SSW 1015,3 10 0,0
02.06.2020 04:00:00 18,0 8,0 22 12 S - 10 -
02.06.2020 03:00:00 18,0 9,0 21 11 S - 10 -
02.06.2020 02:00:00 17,4 9,2 18 10 S 1016,6 10 -
02.06.2020 01:00:00 17,0 9,0 11 6 S - 10 -
02.06.2020 00:00:00 18,0 9,0 9 5 S - 10 -
01.06.2020 23:00:00 18,1 8,9 8 4 S 1016,8 10 0,0
01.06.2020 22:00:00 19,0 8,0 11 6 SE - 10 -
01.06.2020 21:00:00 21,0 8,0 9 5 E - 10 -
01.06.2020 20:00:00 23,4 7,6 18 10 ESE 1016,1 10 -
01.06.2020 19:00:00 25,0 8,0 16 9 E - 10 -
01.06.2020 18:00:00 25,0 10,0 11 6 E - 10 -
01.06.2020 17:00:00 25,2 9,1 16 9 ESE 1016,7 10 0,0
01.06.2020 16:00:00 25,0 9,0 13 7 ESE - 10 -
01.06.2020 15:00:00 25,0 8,0 13 7 E - 10 -
01.06.2020 14:00:00 24,4 9,2 15 8 E 1017,5 10 -
01.06.2020 13:00:00 24,0 9,0 8 4 - - 10 -
01.06.2020 12:00:00 24,0 10,0 8 4 - - 10 -
01.06.2020 11:00:00 22,9 9,3 5 3 W 1018,0 10 0,0
01.06.2020 10:00:00 21,0 9,0 4 2 - - 10 -
01.06.2020 09:00:00 19,0 11,0 4 2 - - 10 -
01.06.2020 08:00:00 16,6 11,2 8 4 SW 1018,0 10 -
01.06.2020 07:00:00 15,0 10,0 9 5 S - 10 -
01.06.2020 06:00:00 14,0 10,0 11 6 SSW - 10 -
01.06.2020 05:00:00 14,0 10,4 8 4 S 1017,3 10 0,0
01.06.2020 04:00:00 15,0 11,0 9 5 S - 10 -
01.06.2020 03:00:00 15,0 11,0 13 7 S - 10 -
01.06.2020 02:00:00 15,1 10,7 8 4 S 1017,0 10 -
01.06.2020 01:00:00 14,0 10,0 5 3 S - 10 -
01.06.2020 00:00:00 15,0 10,0 5 3 E - 10 -
31.05.2020 23:00:00 15,4 9,4 11 6 ESE 1015,9 10 0,0
31.05.2020 22:00:00 18,0 10,0 15 8 E - 10 -
31.05.2020 21:00:00 19,0 10,0 11 6 E - 10 -
31.05.2020 20:00:00 21,2 9,9 13 7 E 1014,2 10 -
31.05.2020 19:00:00 23,0 9,0 5 3 E - 10 -
31.05.2020 18:00:00 23,0 10,0 4 2 - - 10 -

tt = temperature
td = dewpoint
ff = wind speed
dd = wind direction
ppp = reduced air pressure
vv = visibility
rr = precipitation

Next stations